This is the latest recevied weather packets stored in our database for station/object BV5AB-13. If no packets are shown the sender has not sent any weather packets the latest 10 day(s).
| Time | Temp. | Humidity | Pressure | Rain* | Wind** | Luminosity | Snow |
|---|---|---|---|---|---|---|---|
| 1777697824 | 29.44° C | 61% | 1001.9 hPa | 0 mm | - | - | - |
| 1777697224 | 29.44° C | 65% | 1001.9 hPa | 0 mm | - | - | - |
| 1777696624 | 29.44° C | 63% | 1002.1 hPa | 0 mm | - | - | - |
| 1777696024 | 29.44° C | 63% | 1002.2 hPa | 0 mm | - | - | - |
| 1777695424 | 29.44° C | 61% | 1002.1 hPa | 0 mm | - | - | - |
| 1777694824 | 29.44° C | 67% | 1002.2 hPa | 0 mm | - | - | - |
| 1777694223 | 29.44° C | 61% | 1002.4 hPa | 0 mm | - | - | - |
| 1777693624 | 29.44° C | 60% | 1002.5 hPa | 0 mm | - | - | - |
| 1777693024 | 28.89° C | 60% | 1002.5 hPa | 0 mm | - | - | - |
| 1777692423 | 29.44° C | 58% | 1002.5 hPa | 0 mm | - | - | - |
| 1777691824 | 28.89° C | 59% | 1002.5 hPa | 0 mm | - | - | - |
| 1777691224 | 28.33° C | 62% | 1002.6 hPa | 0 mm | - | - | - |
| 1777690641 | 28.33° C | 66% | 1002.8 hPa | 0 mm | - | - | - |
| 1777690023 | 28.33° C | 68% | 1002.9 hPa | 0 mm | - | - | - |
| 1777689423 | 27.78° C | 62% | 1003.1 hPa | 0 mm | - | - | - |
| 1777688824 | 28.33° C | 65% | 1003.2 hPa | 0 mm | - | - | - |
| 1777688226 | 27.78° C | 67% | 1003.2 hPa | 0 mm | - | - | - |
| 1777687624 | 27.78° C | 66% | 1003.3 hPa | 0 mm | - | - | - |
| 1777687024 | 26.67° C | 68% | 1003.5 hPa | 0 mm | - | - | - |
| 1777686424 | 26.67° C | 68% | 1003.6 hPa | 0 mm | - | - | - |
| 1777685823 | 26.67° C | 71% | 1003.7 hPa | 0 mm | - | - | - |
| 1777685224 | 26.11° C | 72% | 1003.9 hPa | 0 mm | - | - | - |
| 1777684624 | 26.67° C | 72% | 1003.9 hPa | 0 mm | - | - | - |
| 1777684023 | 26.11° C | 73% | 1004 hPa | 0 mm | - | - | - |
| 1777683423 | 26.11° C | 72% | 1004 hPa | 0 mm | - | - | - |
* Rain latest hour (hover to see other rain measurements)
** Current wind speed in m/s (hover to see current wind gust speed)